Regional Weather Roundup
Issued by NWS Austin/San Antonio, TX

Home | Current Version | Previous Version | Text Only | Print | Product List | Glossary On
Versions: 1 2 3 4 5 6 7 8 9 10 11 12 13 14 15 16 17 18 19 20 21 22 23 24 25 26 27 28 29 30 31 32 33 34 35 36 37 38 39 40 41 42 43 44 45 46 47 48 49 50
000
ASUS44 KEWX 140201
RWREWX
SOUTH TEXAS REGIONAL WEATHER ROUNDUP
NATIONAL WEATHER SERVICE AUSTIN/SAN ANTONIO TX
800 PM CST WED DEC 13 2017

NOTE: "FAIR" INDICATED FEW OR NO CLOUDS BELOW 12,000 FEET WITH NO
SIGNIFICANT WEATHER AND/OR OBSTRUCTIONS TO VISIBILITY.

* - THESE STATIONS ARE NOT NWS OR FAA STATIONS...AND ARE NOT SUBJECT
    TO NWS AND FAA QUALITY CONTROL.

TXZ171-172-183>190-140300-
TEXAS HILL COUNTRY AND EDWARDS PLATEAU

CITY           SKY/WX    TMP DP  RH WIND       PRES   REMARKS
JUNCTION       CLOUDY    50  32  50 W6        29.96S WCI  48
*LLANO         CLOUDY    45  32  61 CALM      29.99S
BURNET         CLOUDY    49  33  54 SW5       29.98S WCI  47
*HORSESHOE BAY CLOUDY    46  35  66 S3        29.97S
*KERRVILLE     CLOUDY    49  33  56 SE3       29.98S
*FREDERICKSBRG CLOUDY    49  32  51 CALM      29.96F
*ROCKSPRINGS   NOT AVBL
*BOERNE STAGE  MOCLDY    52  34  50 SW3       29.99S
*CASTROVILLE   MOCLDY    52  37  56 SW5       30.01F
HONDO          CLOUDY    53  39  59 W6        30.00S
*UVALDE        CLOUDY    49  41  74 CALM      30.01F
DEL RIO        MOCLDY    48  39  71 SE3       29.99S
LAUGHLIN AFB   NOT AVBL
CARRIZO SPRGS  CLOUDY    52  46  82 CALM      30.00S
*EAGLE PASS    CLEAR     48  41  76 SE3       29.99F
$$

TXZ173-191>194-202-209-217>225-228-140300-
CENTRAL AND SOUTH CENTRAL TEXAS

CITY           SKY/WX    TMP DP  RH WIND       PRES   REMARKS
GEORGETOWN     CLOUDY    52  36  54 SW10      29.98R
AUSTIN/BERGSTM CLOUDY    46  36  68 S3        29.97F
AUSTIN/MABRY   CLOUDY    52  35  52 CALM      29.98S
*AUSTIN/EXEC   CLOUDY    50  36  57 CALM      29.98S
*LAGO VISTA    CLOUDY    54  36  50 SW7       29.97S
SAN MARCOS     CLOUDY    47  36  65 SW6       29.99F WCI  44
NEW BRAUNFELS  MOCLDY    49  36  61 SW5       29.97S WCI  47
RANDOLPH AFB   CLOUDY    54  35  48 W3        29.99S
PT SAN ANTONIO CLOUDY    54  35  49 SW3       29.98S
SAN ANTONIO    MOCLDY    56  35  45 SW6       30.00S
STINSON FIELD  PTCLDY    54  37  52 SW8       29.98S
*LA GRANGE     CLOUDY    50  39  66 CALM      29.97F
*GIDDINGS      CLOUDY    51  36  55 S5        29.99S
*GONZALES      CLOUDY    51  37  58 CALM      29.99S
$$

TXZ163>164-176>182-195>201-210>213-226-227-235-140300-
SOUTHEAST TEXAS

CITY           SKY/WX    TMP DP  RH WIND       PRES   REMARKS
COLLEGE STN    CLOUDY    50  36  58 S8        29.98S WCI  47
*BRYAN         CLOUDY    49  35  57 S5        29.99S WCI  47
*CALDWELL      CLOUDY    50  36  59 S7        29.98S WCI  47
*CROCKETT        N/A     43  34  70 CALM      30.00S
*BRENHAM       CLOUDY    51  37  59 S5        30.00S
HUNTSVILLE     CLOUDY    50  36  58 S8        29.97F WCI  47
CONROE         CLOUDY    50  37  61 S5        29.99F WCI  48
HOUSTON BUSH   CLOUDY    52  36  54 S3        30.00F
HOUSTON HOBBY  CLOUDY    47  38  71 S3        30.01S
*HOUSTON SW AP MOCLDY    42  37  84 CALM      30.02S
PEARLAND       MOCLDY    47  41  80 CALM      30.03S
HOUSTON HOOKS  MOCLDY    46  40  79 S3        30.00F
ELLINGTON FLD  CLOUDY    54  34  47 CALM      30.03F
SUGAR LAND     MOCLDY    47  39  74 CALM      30.01S
*HOUSTON EXEC  NOT AVBL
*CLEVELAND MUN MOCLDY    41  38  90 CALM      30.01F
*WHARTON       CLOUDY    48  39  71 SE3       30.01F
*COLUMBUS      FAIR      48  38  70 SW5       30.00F WCI  46
*EAGLE LAKE    CLOUDY    50  41  69 S3        30.00S
$$

TXZ214>216-236>238-140300-
THE UPPER TEXAS COAST

CITY           SKY/WX    TMP DP  RH WIND       PRES   REMARKS
*ORANGE        PTCLDY    43  41  93 CALM      30.03F
PORT ARTHUR    PTCLDY    44  40  85 S3        30.01F
GALVESTON      CLOUDY    55  42  61 SW5       30.02F
ANGLETON       CLOUDY    48  39  71 S3        30.02F
*BAY CITY      CLOUDY    48  41  75 CALM      30.01F
PALACIOS       CLOUDY    50  47  89 SE5       30.01F WCI  48
$$

TXZ229>234-239>247-140300-
TEXAS COASTAL BEND AND RIO GRANDE PLAINS

CITY           SKY/WX    TMP DP  RH WIND       PRES   REMARKS
VICTORIA       CLOUDY    51  43  74 S6        30.00F
*BEEVILLE      CLOUDY    55  39  54 SW3       30.02R
ROCKPORT       CLOUDY    52  44  74 S6        30.01S
*PORT ARANSAS  NOT AVBL
*PORT LAVACA   CLOUDY    51  45  80 S5        30.01S
*INGLESIDE     CLOUDY    54  47  77 CALM      30.01S
CORPUS CHRISTI CLOUDY    55  50  83 SE5       30.01S
CORPUS NAS     CLOUDY    57  50  77 S5        30.02R
*ROBSTOWN        N/A     55  48  76 SE3       30.02S HAZE
ALICE          CLOUDY    53  43  68 S3        30.02R
KINGSVILLE NAS CLOUDY    53  48  83 S6        30.02R
COTULLA        CLOUDY    54  43  66 NE3       30.00S
*FAITH RANCH   CLEAR     54  43  66 E6        30.00S
LAREDO         CLOUDY    58  40  51 MISG      30.02R
$$

TXZ248>255-140300-
DEEP SOUTH TEXAS

CITY           SKY/WX    TMP DP  RH WIND       PRES   REMARKS
BROWNSVILLE    PTCLDY    61  53  75 CALM      30.03F
PORT ISABEL    PTCLDY    58  52  80 SE3       30.02F
*SOUTH PADRE   NOT AVBL
HARLINGEN      PTCLDY    57  50  77 E6        30.01F
*HEBBRONVILLE  PTCLDY    55  35  47 CALM      30.02R
MCALLEN        PTCLDY    60  48  64 E5        30.01F
*WESLACO       PTCLDY    59  46  63 CALM      30.01S
FALFURRIAS     CLOUDY    57  38  49 CALM      30.01S
EDINBURG       PTCLDY    58  44  58 CALM      30.02F
*ZAPATA        PTCLDY    55  41  59 SE5       29.99F
$$

TXZ213>215-236>238-242>244-246-247-251-254-255-140300-
CMAN STATIONS

STATION/POSITION TIME  TEMP    WIND        PRES    WAVE
                       AIR SEA DIR/SP/G            HT/PER
                 (UTC) (F)     (DEG/KT/KT) (MB)    (FT/S)
SABINE PASS      0124   53 61  260/  4/  6 1018.1
SEA RIM ST PARK  0100   53     260/  5/  6 1017.0
NORTH JETTY/GLS  0118      61  230/  7/  8 1016.0
EAGLE POINT      0130   53 55  240/  3/  3 1016.4
MORGANS POINT    0130   55 57  230/  1/  2 1016.3
PORT O`CONNOR    0130   56 59  170/  4/  4 1015.7
MALAQUITE BEACH  0130   64 63  170/  7/  8 1015.8
BAFFIN BAY       0130   60 58  160/  5/  6 1016.4
PORT ISABEL      0130   61 61  100/  5/  5 1016.3
$$



USA.gov is the U.S. government's official web portal to all federal, state and local government web resources and services.